SCP
0 0 0 0 0 0 0 0 0 0 0 0 0 0 0 0 0 0 0 0 0 0 0 0 0 0 0 0 0 0 0 0
0 0 0 0 0 0 0 0 0 0 0 0 0 0 0 0 0 0 0 0 0 0 0 0 0 0 0 0 0 0 0 0
0 0 0 0 0 0 0 0 0 0 0 0 0 0 0 0 0 0 0 0 0 0 0 0 0 0 0 0 0 0 0 0
0 0 0 0 0 0 0 0 0 0 0 0 0 0 0 0 0 0 0 0 0 0 0 0 0 0 0 0 0 0 0 0
0 0 0 0 0 0 0 0 0 0 0 0 0 0 0 0 0 0 0 0 0 0 0 0 0 0 0 0 0 0 0 0
0 0 0 0 0 0 0 0 0 0 0 0 0 0 0 0 0 0 0 0 0 0 0 0 0 0 0 0 0 0 0 0
0 0 0 0 0 0 0 0 0 0 0 0 0 0 0 0 0 0 0 0 0 0 0 0 0 0 0 0 0 0 0 0
0 0 0 0 0 0 0 0 0 0 0 0 0 0 0 0 0 0 0 0 0 0 0 0 0 0 0 0 0 0 0 0
0 0 0 0 0 0 0 0 0 0 0 0 0 0 0 0 0 0 0 0 0 0 0 0 0 0 0 0 0 0 0 0
0 0 0 0 0 0 0 0 0 0 0 0 0 0 0 0 0 0 0 0 0 0 0 0 0 0 0 0 0 0 0 0
0 0 0 0 0 0 0 0 0 0 0 0 0 0 0 0 0 0 0 0 0 0 0 0 0 0 0 0 0 0 0 0
0 0 0 0 0 0 0 0 0 0 0 0 0 0 0 0 0 0 0 0 0 0 0 0 0 0 0 0 0 0 0 0
0 0 0 0 0 0 0 0 0 0 0 0 0 0 0 0 0 0 0 0 0 0 0 0 0 0 0 0 0 0 0 0
0 0 0 0 0 0 0 0 0 0 0 0 0 0 0 0 0 0 0 0 0 0 0 0 0 0 0 0 0 0 0 0
0 0 0 0 0 0 0 0 0 0 0 0 0 0 0 0 0 0 0 0 0 0 0 0 0 0 0 0 0 0 0 0
0 0 0 0 0 0 0 0 0 0 0 0 0 0 0 0 0 0 0 0 0 0 0 0 0 0 0 0 0 0 0 0
0 0 0 0 0 0 0 0 0 0 0 0 0 0 0 0 0 0 0 0 0 0 0 0 0 0 0 0 0 0 0 0
0 0 0 0 0 0 0 0 0 0 0 0 0 0 0 0 0 0 0 0 0 0 0 0 0 0 0 0 0 0 0 0
0 0 0 0 0 0 0 0 0 0 0 0 0 0 0 0 0 0 0 0 0 0 0 0 0 0 0 0 0 0 0 0
0 0 0 0 0 0 0 0 0 0 0 0 0 0 0 0 0 0 0 0 0 0 0 0 0 0 0 0 0 0 0 0
Wind_Speed_500mb
29 31 29 26 18 13 7 2 2 5 10 13 15 14 14 16 19 25 32 39 45 51 56 57 56 56 57 57 58 58 56 57
45 35 27 22 17 12 7 5 4 6 9 11 12 12 16 22 28 36 44 50 55 57 56 57 58 57 55 53 53 53 54 54
45 36 27 18 15 12 9 4 3 6 8 10 13 18 24 31 40 46 51 51 50 51 49 48 48 48 49 51 52 54 56 57
38 32 26 20 16 12 8 6 6 6 8 12 17 23 32 40 45 45 45 45 44 44 43 43 45 47 48 49 51 51 54 58
34 31 28 23 19 14 11 9 6 6 10 17 26 33 38 39 40 39 39 39 38 41 44 45 46 48 51 53 57 59 61 62
34 36 33 28 22 18 13 9 7 9 17 25 31 33 34 33 33 33 35 38 40 39 41 45 49 54 59 61 61 62 63 63
38 38 37 31 25 19 16 12 10 17 24 27 30 30 30 30 31 33 34 37 41 44 46 48 50 53 57 62 65 65 65 67
46 43 38 31 24 18 14 12 18 24 27 28 28 29 29 30 32 35 38 40 42 44 46 50 54 60 62 64 65 67 68 69
44 43 36 29 22 16 13 19 24 26 26 26 28 29 31 33 35 37 39 42 44 47 51 54 56 58 62 65 64 64 67 69
34 34 30 22 15 16 21 24 25 25 26 28 28 30 33 35 37 39 41 42 45 49 52 53 56 57 58 61 63 65 66 67
32 27 20 18 19 22 24 25 25 26 29 29 32 34 36 39 40 41 43 44 44 46 49 53 52 54 54 57 62 64 68 69
24 22 21 20 21 24 25 26 26 29 31 33 35 39 41 41 42 42 42 44 45 45 47 47 49 47 50 54 58 63 70 74
21 19 20 22 26 27 26 26 29 33 34 36 38 39 39 41 42 42 43 43 45 45 44 45 43 47 51 55 59 60 67 76
21 22 24 27 29 27 26 30 33 34 37 38 39 39 41 43 44 43 43 45 47 47 47 42 42 46 53 59 65 68 62 74
26 27 29 32 29 28 30 33 35 36 38 39 40 43 43 43 42 42 43 44 47 47 47 47 49 53 59 65 68 69 74 82
33 34 34 37 33 33 34 36 38 39 40 42 44 44 44 43 41 41 44 45 45 44 45 49 52 54 55 55 60 58 67 74
37 40 39 39 38 38 41 40 43 43 45 46 46 45 44 42 38 40 41 42 41 39 43 46 51 57 61 55 50 59 74 78
40 39 43 45 44 45 47 45 47 48 49 49 49 46 44 41 39 37 34 36 37 39 43 50 57 63 67 60 69 71 71 73
43 45 47 48 46 50 51 51 51 51 51 50 47 44 42 39 38 38 36 35 33 37 46 53 58 63 65 69 70 70 66 68
50 50 48 50 50 54 54 54 53 53 51 48 45 40 37 36 36 36 35 34 37 41 43 53 61 62 59 59 62 67 69 69
Wind_Direction_500mb
174 159 144 144 141 119 117 134 330 346 338 343 348 351 353 356 342 333 332 330 326 324 323 322 321 321 321 321 320 319 319 317
173 164 161 155 157 164 180 216 273 329 337 345 345 344 343 336 328 327 325 325 324 323 324 324 325 324 324 325 325 324 323 321
165 163 165 165 168 178 193 219 297 319 331 331 335 332 327 322 321 321 322 323 324 325 326 327 326 326 325 326 328 327 326 324
168 174 179 181 190 203 213 224 259 297 313 318 313 312 313 315 319 323 325 327 330 330 331 331 332 332 331 331 332 333 334 333
179 188 194 201 204 204 213 223 245 273 302 309 312 315 319 323 326 328 330 333 334 337 336 334 334 333 334 338 340 340 338 335
198 199 203 207 206 212 218 235 244 284 304 310 317 321 324 328 330 333 335 336 336 335 334 336 338 340 341 340 339 336 335 336
211 209 207 206 208 216 227 228 272 303 312 320 323 327 329 330 331 332 333 335 339 341 342 341 341 338 336 336 337 336 337 339
217 214 208 207 214 224 229 266 301 313 319 323 324 321 320 324 329 335 339 341 340 340 340 339 340 339 337 336 338 338 340 340
216 207 204 209 218 226 257 295 305 310 312 311 310 314 321 328 333 335 336 337 338 339 341 341 339 338 339 337 336 339 342 342
202 202 205 213 226 249 276 292 299 300 300 306 312 319 327 329 327 329 330 333 337 338 338 338 338 337 336 335 338 340 341 343
191 197 211 226 242 270 288 293 291 297 304 311 319 321 321 321 322 325 327 329 333 336 335 334 334 335 336 336 339 339 339 339
197 207 218 243 269 282 287 285 292 303 311 316 316 314 314 315 317 321 325 327 329 331 331 329 328 330 333 336 337 337 333 332
205 223 251 268 278 282 282 290 306 312 311 307 304 307 311 315 318 321 322 323 324 324 325 326 326 329 332 332 334 335 331 328
236 256 270 277 282 283 293 301 303 299 296 299 306 312 315 316 317 317 319 320 320 322 324 326 328 331 330 329 332 332 329 324
261 273 279 281 275 279 282 289 292 295 301 305 308 311 313 311 312 314 316 317 320 323 326 331 334 332 330 332 332 334 325 320
271 275 277 271 269 276 284 290 292 296 298 300 303 305 307 309 311 313 316 318 322 324 327 330 331 332 331 330 331 325 319 321
267 273 277 270 272 277 281 287 291 292 294 296 300 303 305 305 307 312 314 317 320 323 326 328 330 330 331 329 325 324 328 329
273 274 273 270 272 275 281 286 287 288 290 294 297 299 301 303 304 304 308 314 318 322 324 327 329 330 328 326 324 330 329 330
270 275 274 271 275 276 279 282 284 286 289 293 294 296 298 301 303 306 311 313 313 320 325 325 325 326 326 324 325 327 332 333
273 280 280 277 275 275 279 283 285 287 288 288 289 293 296 300 305 309 312 312 316 320 320 321 323 327 329 329 329 332 334 333
Wind_Speed_850mb
29 31 29 26 18 13 7 2 2 5 10 13 15 14 14 16 19 25 32 39 45 51 56 57 56 56 57 57 58 58 56 57
45 35 27 22 17 12 7 5 4 6 9 11 12 12 16 22 28 36 44 50 55 57 56 57 58 57 55 53 53 53 54 54
45 36 27 18 15 12 9 4 3 6 8 10 13 18 24 31 40 46 51 51 50 51 49 48 48 48 49 51 52 54 56 57
38 32 26 20 16 12 8 6 6 6 8 12 17 23 32 40 45 45 45 45 44 44 43 43 45 47 48 49 51 51 54 58
34 31 28 23 19 14 11 9 6 6 10 17 26 33 38 39 40 39 39 39 38 41 44 45 46 48 51 53 57 59 61 62
34 36 33 28 22 18 13 9 7 9 17 25 31 33 34 33 33 33 35 38 40 39 41 45 49 54 59 61 61 62 63 63
38 38 37 31 25 19 16 12 10 17 24 27 30 30 30 30 31 33 34 37 41 44 46 48 50 53 57 62 65 65 65 67
46 43 38 31 24 18 14 12 18 24 27 28 28 29 29 30 32 35 38 40 42 44 46 50 54 60 62 64 65 67 68 69
44 43 36 29 22 16 13 19 24 26 26 26 28 29 31 33 35 37 39 42 44 47 51 54 56 58 62 65 64 64 67 69
34 34 30 22 15 16 21 24 25 25 26 28 28 30 33 35 37 39 41 42 45 49 52 53 56 57 58 61 63 65 66 67
32 27 20 18 19 22 24 25 25 26 29 29 32 34 36 39 40 41 43 44 44 46 49 53 52 54 54 57 62 64 68 69
24 22 21 20 21 24 25 26 26 29 31 33 35 39 41 41 42 42 42 44 45 45 47 47 49 47 50 54 58 63 70 74
21 19 20 22 26 27 26 26 29 33 34 36 38 39 39 41 42 42 43 43 45 45 44 45 43 47 51 55 59 60 67 76
21 22 24 27 29 27 26 30 33 34 37 38 39 39 41 43 44 43 43 45 47 47 47 42 42 46 53 59 65 68 62 74
26 27 29 32 29 28 30 33 35 36 38 39 40 43 43 43 42 42 43 44 47 47 47 47 49 53 59 65 68 69 74 82
33 34 34 37 33 33 34 36 38 39 40 42 44 44 44 43 41 41 44 45 45 44 45 49 52 54 55 55 60 58 67 74
37 40 39 39 38 38 41 40 43 43 45 46 46 45 44 42 38 40 41 42 41 39 43 46 51 57 61 55 50 59 74 78
40 39 43 45 44 45 47 45 47 48 49 49 49 46 44 41 39 37 34 36 37 39 43 50 57 63 67 60 69 71 71 73
43 45 47 48 46 50 51 51 51 51 51 50 47 44 42 39 38 38 36 35 33 37 46 53 58 63 65 69 70 70 66 68
50 50 48 50 50 54 54 54 53 53 51 48 45 40 37 36 36 36 35 34 37 41 43 53 61 62 59 59 62 67 69 69
Wind_Direction_850mb
174 159 144 144 141 119 117 134 330 346 338 343 348 351 353 356 342 333 332 330 326 324 323 322 321 321 321 321 320 319 319 317
173 164 161 155 157 164 180 216 273 329 337 345 345 344 343 336 328 327 325 325 324 323 324 324 325 324 324 325 325 324 323 321
165 163 165 165 168 178 193 219 297 319 331 331 335 332 327 322 321 321 322 323 324 325 326 327 326 326 325 326 328 327 326 324
168 174 179 181 190 203 213 224 259 297 313 318 313 312 313 315 319 323 325 327 330 330 331 331 332 332 331 331 332 333 334 333
179 188 194 201 204 204 213 223 245 273 302 309 312 315 319 323 326 328 330 333 334 337 336 334 334 333 334 338 340 340 338 335
198 199 203 207 206 212 218 235 244 284 304 310 317 321 324 328 330 333 335 336 336 335 334 336 338 340 341 340 339 336 335 336
211 209 207 206 208 216 227 228 272 303 312 320 323 327 329 330 331 332 333 335 339 341 342 341 341 338 336 336 337 336 337 339
217 214 208 207 214 224 229 266 301 313 319 323 324 321 320 324 329 335 339 341 340 340 340 339 340 339 337 336 338 338 340 340
216 207 204 209 218 226 257 295 305 310 312 311 310 314 321 328 333 335 336 337 338 339 341 341 339 338 339 337 336 339 342 342
202 202 205 213 226 249 276 292 299 300 300 306 312 319 327 329 327 329 330 333 337 338 338 338 338 337 336 335 338 340 341 343
191 197 211 226 242 270 288 293 291 297 304 311 319 321 321 321 322 325 327 329 333 336 335 334 334 335 336 336 339 339 339 339
197 207 218 243 269 282 287 285 292 303 311 316 316 314 314 315 317 321 325 327 329 331 331 329 328 330 333 336 337 337 333 332
205 223 251 268 278 282 282 290 306 312 311 307 304 307 311 315 318 321 322 323 324 324 325 326 326 329 332 332 334 335 331 328
236 256 270 277 282 283 293 301 303 299 296 299 306 312 315 316 317 317 319 320 320 322 324 326 328 331 330 329 332 332 329 324
261 273 279 281 275 279 282 289 292 295 301 305 308 311 313 311 312 314 316 317 320 323 326 331 334 332 330 332 332 334 325 320
271 275 277 271 269 276 284 290 292 296 298 300 303 305 307 309 311 313 316 318 322 324 327 330 331 332 331 330 331 325 319 321
267 273 277 270 272 277 281 287 291 292 294 296 300 303 305 305 307 312 314 317 320 323 326 328 330 330 331 329 325 324 328 329
273 274 273 270 272 275 281 286 287 288 290 294 297 299 301 303 304 304 308 314 318 322 324 327 329 330 328 326 324 330 329 330
270 275 274 271 275 276 279 282 284 286 289 293 294 296 298 301 303 306 311 313 313 320 325 325 325 326 326 324 325 327 332 333
273 280 280 277 275 275 279 283 285 287 288 288 289 293 296 300 305 309 312 312 316 320 320 321 323 327 329 329 329 332 334 333